www.pogodaiklimat.ru
Время
(UTC), дата
18 10.01
21 10.01
00 11.01
03 11.01
06 11.01
09 11.01
12 11.01
15 11.01
18 11.01
21 11.01
00 12.01
03 12.01
06 12.01
09 12.01
12 12.01
15 12.01
18 12.01
21 12.01
00 13.01
03 13.01
06 13.01
09 13.01
12 13.01
15 13.01
18 13.01
21 13.01
00 14.01
03 14.01
06 14.01
09 14.01
12 14.01
15 14.01
18 14.01
21 14.01
00 15.01
03 15.01
06 15.01
09 15.01
12 15.01
15 15.01
18 15.01
21 15.01
00 16.01
03 16.01
06 16.01
09 16.01
12 16.01
15 16.01
18 16.01
21 16.01
00 17.01
03 17.01
06 17.01
09 17.01
12 17.01
15 17.01
Ветер
(напр.,м/с)
Видим. Явления Облачность Т
(С)
Тd
(С)
f
(%)
Тe
(С)
Тes
(С)
Комфортность P
(гПа)
Po
(гПа)
Тmin
(С)
Tmax
(С)
R
(мм)
R24
(мм)
S
(см)
штиль 0 н/о 8/5 1000 м
[Cb cap Ac trans]
+3.5 -1.2 71 +3 +3 тепло 1018.2 923.5 +8.9
штиль 0 н/о 8/5 1000 м
[Cb cap Ci ing]
+3.1 -1.7 71 +2 +2 по сезону 1022.5 859.8
штиль 0 н/о 10/10 1000 м
[Cb cap]
-1.0 -1.0 100 -2 -2 по сезону 1021.5 925.0
штиль 0 50 км 6/3 1000 м
[Cb cap As op Ci ing]
+1.8 +0.5 91 +1 +1 по сезону 1019.1 923.9 -1.5
штиль 0 50 км 10/10 1000 м
[Cb cap]
+7.0 -2.5 51 +7 +7 тепло 1016.3 922.9 -1.5
З 2 50 км 10/10 1000 м
[Cb cap]
+10.5 -2.7 39 +10 +10 тепло 1013.7 921.7
З 3 50 км 10/10 1000 м
[Cb cap]
+9.6 +0.4 53 +8 +8 тепло 1013.0 920.8
ЮЗ 4 н/о 10/10 1000 м
[Cb cap]
+10.1 +0.6 52 +8 +8 тепло 1012.0 920.0 +12.0
З 3 н/о 10/10 1000 м
[Cb cap]
+7.8 +1.9 66 +5 +5 тепло 1013.1 920.4 +12.0
СЗ 3 н/о 10/10 1000 м
[Cb cap]
+4.5 +0.6 76 +1 +1 по сезону 1015.2 921.2
штиль 0 н/о слаб. ливневой дождь 10/10 1000 м
[Cb cap]
+3.0 +0.6 84 +2 +2 тепло 1016.5 921.9
ЮЗ 3 10 км слаб. ливневой дождь 10/10 1000 м
[Cb cap]
+2.1 +1.5 96 -2 -2 по сезону 1015.8 921.0 +1.5
ЮЗ 3 10 км слаб. ливневой дождь 10/10 1000 м
[Cb cap]
+4.5 +3.3 92 +1 +1 по сезону 1013.5 919.7 +1.5
З 5 10 км {ливн. осадки} 10/10 1000 м
[Cb cap]
+4.1 +2.1 87 -1 -1 прохладно 1011.9 918.2
З 4 10 км {ливн. осадки} 10/10 1000 м
[Cb cap]
+3.0 +1.5 90 -2 -2 прохладно 1011.2 917.1
З 4 н/о слаб. ливневой дождь 10/10 1000 м
[Cb cap]
+2.3 +2.3 100 -3 -3 прохладно 1014.1 919.5 +5.3
З 6 н/о слаб. ливневой снег 10/10 1000 м
[Cb cap]
-1.7 -1.7 100 -9 -9 холодно 1018.0 921.7 +5.3
З 4 н/о слаб. ливневой снег 10/10 1000 м
[Cb cap]
-2.9 -2.9 100 -9 -9 холодно 1019.4 922.6
ЮЗ 3 н/о слаб. ливневой снег 10/10 1000 м
[Cb cap]
-3.3 -3.3 100 -9 -9 холодно 1020.4 923.1
З 5 1000 м слаб. ливневой снег 10/10 1000 м
[Cb cap]
-3.1 -3.1 100 -10 -10 очень
холодно
1021.8 924.5 -3.9 4
З 2 1000 м слаб. ливневой снег 8/6 1000 м
[Sc Ac cast]
-0.2 -1.7 90 -4 -3 прохладно 1021.4 925.3 -3.9
З 2 1000 м {ливн. осадки} 10/10 1000 м
[Cb cap]
-0.4 -3.2 81 -4 -4 холодно 1020.6 924.4
З 2 1000 м слаб. ливневой снег 10/10 1000 м
[Cb cap]
-0.2 -2.3 86 -4 -4 холодно 1019.6 923.6
штиль 0 н/о {ливн. осадки} 10/10 1000 м
[Cb cap]
-1.5 -3.0 89 -3 -3 прохладно 1022.8 926.0 +0.3
штиль 0 н/о 10/10 1000 м
[Cb cap]
-1.9 -2.8 94 -3 -3 по сезону 1024.0 927.0 +0.3
штиль 0 н/о 10/10 1000 м
[Cb cap]
-1.7 -2.3 96 -3 -3 по сезону 1024.3 927.4
штиль 0 н/о 10/10 1000 м
[Cb cap]
-2.0 -3.0 93 -3 -3 по сезону 1024.7 927.6
штиль 0 1000 м туман 10/10 1000 м
[Cb cap]
-2.2 -2.5 98 -4 -4 прохладно 1025.5 928.3 -2.6 2
штиль 0 1000 м туман 8/4 1000 м
[Sc Ac cast Ci sp]
+1.7 -0.5 85 +1 +3 по сезону 1024.3 928.5 -2.6
штиль 0 1000 м туман 6/4 1000 м
[Cb cap Ac und Ci ing]
+2.6 -1.0 77 +2 +5 по сезону 1021.8 926.5
СВ 2 1000 м туман 5/0 1000 м
[Ac cast Ci ing]
+3.2 -1.2 73 0 0 по сезону 1021.8 926.7
штиль 0 н/о 6/3 1000 м
[Cb cap Ac cast]
-1.5 -2.4 94 -3 -3 прохладно 1025.6 928.5 +3.6
штиль 0 н/о 10/10 1000 м
[Cb cap]
-1.8 -2.7 94 -3 -3 по сезону 1027.8 930.4 +3.6
штиль 0 н/о 10/10 1000 м
[Cb cap]
-2.0 -3.1 92 -3 -3 по сезону 1028.4 930.8
штиль 0 н/о 10/10 1000 м
[Cb cap]
-2.2 -2.2 100 -4 -4 по сезону 1028.7 931.0
штиль 0 1000 м дымка 10/10 1000 м
[Cb cap]
-1.4 -2.3 94 -3 -3 по сезону 1029.9 932.5 -2.5
штиль 0 1000 м туман 10/10 1000 м
[Cb cap]
-0.8 -2.9 86 -2 -2 по сезону 1031.7 934.4 -2.5
З 2 1000 м туман 10/10 1000 м
[Cb cap]
-0.2 -2.9 82 -4 -4 холодно 1030.8 933.7
штиль 0 1000 м туман 10/10 1000 м
[Cb cap]
-0.4 -2.3 87 -2 -2 прохладно 1031.1 933.9
штиль 0 н/о 10/10 1000 м
[Cb cap]
-0.3 -1.5 92 -2 -2 по сезону 1031.8 934.6 +0.1
штиль 0 н/о 10/10 1000 м
[Cb cap]
-0.5 -0.5 100 -2 -2 по сезону 1030.1 934.0 +0.1
штиль 0 н/о 10/10 1000 м
[Cb cap]
-0.8 -0.8 100 -2 -2 по сезону 1030.7 934.5
н/о {метель} н/о -2.8 -2.8 100 -4 -4 по сезону 1031.2 935.0
штиль 0 50 км 4/3
[Cb calv Ac cast]
-5.4 -6.1 95 -6 -6 прохладно 1032.0 933.0 -6.0
штиль 0 1000 м дымка 4/0 1000 м
[Ac cast Ci ing]
+0.3 -3.4 76 -1 +4 по сезону 1030.7 933.8 -6.0
штиль 0 1000 м туман 8/5 1000 м
[Cb calv Ac cast]
+2.0 -2.3 73 +1 +3 по сезону 1028.3 932.2
ЮЗ 2 1000 м туман 6/4 1000 м
[Sc Ac trans Ci ing]
+1.6 -0.6 85 -2 -2 прохладно 1027.6 931.5
Ю 3 н/о 10/10 1000 м
[Cb cap]
-1.3 -1.6 98 -6 -6 холодно 1031.5 933.9 +2.6
штиль 0 н/о 10/10 1000 м
[Cb cap]
-0.3 -3.0 82 -1 -1 по сезону 1033.0 935.7 +2.6
штиль 0 н/о 10/10 1000 м
[Cb cap]
-1.2 -2.1 94 -3 -3 по сезону 1034.0 936.3
штиль 0 н/о 10/10 1000 м
[Cb cap]
-1.8 -2.1 98 -3 -3 по сезону 1033.9 936.0
штиль 0 1000 м туман 10/10 1000 м
[Cb cap]
-0.7 -2.5 88 -2 -2 по сезону 1033.9 936.4 -2.0
ЮЗ 2 1000 м туман 10/10 1000 м
[Cb cap]
+0.3 -3.7 74 -3 -3 прохладно 1034.3 937.1 -2.0
З 3 1000 м туман 10/10 1000 м
[Cb cap]
+2.1 -3.7 65 -2 -2 по сезону 1030.3 934.0
З 3 1000 м туман 10/10 1000 м
[Cb cap]
+1.5 -2.6 74 -3 -3 прохладно 1029.1 932.8
штиль 0 н/о 10/10 1000 м
[Cb cap]
+0.8 -2.5 79 -0 -0 по сезону 1029.9 933.0 +2.2
Местоположение метеостанции Душанбе (Таджикистан): широта 38.55 долгота 68.78 высота над уровнем моря 800 м.
В архиве по умолчанию представлена погода в Душанбе за последнюю неделю. Архивные данные за месяц целиком и за предыдущие месяцы, начиная с января 2011 года, Вы можете получить, выбрав интересующий диапазон дат из раскрывающегося списка и нажав кнопку "Найти!".
*Определитесь, кто Вы:
Внимание! Время в таблицах - всемирное. Для получения местного времени необходимо прибавить поправку, которая равна 5 ч.
Смотрите также архив погоды в соседних городах и на ближайших метеорологических станциях:
Партнеры нашего сайта:      
Пояснения к столбцам:
  • Ветер - указаны скорость ветра в м/с - средняя за 10 мин, порывы в срок и между сроками (в фигурных скобках) и направление, откуда дует ветер: С - северный,
  • СВ - северо-восточный, В - восточный, ЮВ - юго-восточный, Ю - южный, ЮЗ - юго-западный, З - западный, СЗ - северо-западный.
  • Видимость - горизонтальная дальность видимости в метрах или километрах. При видимости от 1 до 10 км при отсутствии осадков обычно наблюдается дымка, при ухудшении видимости до 1 км и менее - туман. В сухую погоду видимость может ухудшаться дымом, пылью или мглою.
  • Явления - указаны атмосферные явления, наблюдавшиеся в срок или в последний час перед сроком; фигурными скобками обозначены явления, наблюдавшиеся между сроками (за 1-3 часа до срока); квадратными скобками обозначены град или гололедные отложения с указанием их диаметра в мм.
  • Облачность - указаны через наклонную черту общая и нижняя облачность в баллах и высота нижней границы облаков в метрах; квадратными скобками обозначены формы облаков: Ci - перистые, Cs - перисто-слоистые, Cc - перисто-кучевые, Ac - высококучевые, As - высокослоистые, Sc - слоисто-кучевые, Ns - слоисто-дождевые, Cu - кучевые, Cb - кучево-дождевые. Подробнее классификацию облаков см. в Атласе облаков (PDF).
  • T - Температура воздуха - температура, измеренная на высоте 2 м над землей.
  • Td - Температура точки росы - температура, при понижении до которой содержащийся в воздухе водяной пар достигнет насыщения.
  • f - Относительная влажность воздуха - влажноcть воздуха, измеренная на высоте 2 м над землей.
  • Te - Эффективная температура - температура, которую ощущает одетый по сезону человек в тени. Характеристика душности погоды. При расчете учитывается влияние влажности воздуха и скорости ветра на теплоощущения человека.
  • Tes - Эффективная температура на солнце - температура, которую ощущает человек, с поправкой на солнечный нагрев. Характеристика знойности погоды. Зависит от высоты солнца над горизонтом, облачности и скорости ветра. Ночью, в пасмурную погоду, а также при ветре 12 м/с и более поправка равна нулю.
  • P - Атмосферное давление - приведенное к уровню моря атмосферное давление.
  • Po - Атмосферное давление - измеренное на уровне метеостанции атмосферное давление.
  • Tmin - Минимальная температура - минимум температуры воздуха на высоте 2 м над землей.
  • Tmax - Максимальная температура - максимум температуры воздуха на высоте 2 м над землей.
  • R - Количество осадков - Количество выпавших осадков за период времени, мм. При наведении курсора мыши на число - период времени, за который выпало указанное количество осадков.
  • R24 - Количество осадков - Количество выпавших осадков за 24 часа, мм.
  • S - Снежный покров - Высота снежного покрова, см. При наведении курсора мыши на число - состояние снежного покрова и степень покрытия местности в баллах.